StationID,Date,MaxTemp,MinTemp,Precipitation,Snowfall,SnowDepth
"USC00501201","1908-04-01",39.02,33.98,229.00,0.00,
"USC00501201","1908-04-02",39.92,35.96,196.00,0.00,
"USC00501201","1908-04-03",37.94,32.00,203.00,89.00,102.00
"USC00501201","1908-04-04",42.08,32.00,147.00,51.00,51.00
"USC00501201","1908-04-05",39.02,33.08,330.00,254.00,305.00
"USC00501201","1908-04-06",37.04,30.02,132.00,0.00,
"USC00501201","1908-04-07",41.00,33.98,292.00,0.00,
"USC00501201","1908-04-08",42.98,30.92,76.00,0.00,
"USC00501201","1908-04-09",39.02,32.00,191.00,25.00,0.00
"USC00501201","1908-04-10",41.00,33.98,122.00,0.00,
"USC00501201","1908-04-11",42.98,30.02,53.00,25.00,0.00
"USC00501201","1908-04-12",42.08,28.94,20.00,0.00,
"USC00501201","1908-04-13",44.96,28.94,102.00,38.00,
"USC00501201","1908-04-14",39.92,32.00,51.00,0.00,
"USC00501201","1908-04-15",46.04,42.08,76.00,0.00,
"USC00501201","1908-04-16",46.94,33.08,165.00,0.00,
"USC00501201","1908-04-17",48.02,37.94,38.00,0.00,
"USC00501201","1908-04-18",50.00,35.96,23.00,0.00,
"USC00501201","1908-04-19",48.92,30.92,43.00,0.00,
"USC00501201","1908-04-20",48.92,35.96,20.00,0.00,
"USC00501201","1908-04-21",53.06,33.08,0.00,0.00,
"USC00501201","1908-04-22",50.00,37.04,13.00,0.00,
"USC00501201","1908-04-23",50.00,37.94,13.00,0.00,
"USC00501201","1908-04-24",48.02,37.04,64.00,0.00,
"USC00501201","1908-04-25",44.96,28.94,18.00,0.00,
"USC00501201","1908-04-26",48.92,33.08,338.00,0.00,
"USC00501201","1908-04-27",46.04,37.04,76.00,0.00,
"USC00501201","1908-04-28",53.96,33.98,10.00,0.00,
"USC00501201","1908-04-29",48.02,39.02,71.00,0.00,
"USC00501201","1908-04-30",66.92,44.96,25.00,0.00,
"USC00501201","1908-05-01",57.02,35.96,76.00,,
"USC00501201","1908-05-02",48.92,28.04,0.00,,
"USC00501201","1908-05-03",46.04,37.04,81.00,,
"USC00501201","1908-05-04",46.04,33.98,46.00,,
"USC00501201","1908-05-05",57.02,33.98,30.00,,
"USC00501201","1908-05-06",51.08,35.96,99.00,,
"USC00501201","1908-05-07",48.02,32.00,8.00,,
"USC00501201","1908-05-08",46.94,33.08,23.00,,
"USC00501201","1908-05-09",48.92,35.96,269.00,,
"USC00501201","1908-05-10",51.98,37.04,15.00,,
"USC00501201","1908-05-11",48.92,37.94,13.00,,
"USC00501201","1908-05-12",57.02,28.04,0.00,,
"USC00501201","1908-05-13",69.08,28.94,0.00,,
"USC00501201","1908-05-14",62.96,30.92,0.00,,
"USC00501201","1908-05-15",59.00,30.92,0.00,,
"USC00501201","1908-05-16",55.94,35.06,0.00,,
"USC00501201","1908-05-17",62.96,46.94,0.00,,
"USC00501201","1908-05-18",60.98,35.96,30.00,,
"USC00501201","1908-05-19",55.94,33.98,15.00,,
"USC00501201","1908-05-20",51.98,33.08,51.00,,
"USC00501201","1908-05-21",48.92,33.08,18.00,,
"USC00501201","1908-05-22",55.04,39.02,0.00,,
"USC00501201","1908-05-23",51.08,39.92,127.00,,
"USC00501201","1908-05-24",51.98,39.02,0.00,,
"USC00501201","1908-05-25",53.06,39.02,0.00,,
"USC00501201","1908-05-26",55.94,35.96,15.00,,
"USC00501201","1908-05-27",53.06,42.08,76.00,,
"USC00501201","1908-05-28",48.92,44.06,84.00,,
"USC00501201","1908-05-29",53.06,37.04,3.00,,
"USC00501201","1908-05-30",48.92,42.08,178.00,,
"USC00501201","1908-05-31",48.92,35.06,13.00,,
"USC00501201","1908-06-01",55.94,41.00,20.00,,
"USC00501201","1908-06-02",60.98,33.08,3.00,,
"USC00501201","1908-06-03",59.00,35.06,0.00,,
"USC00501201","1908-06-04",53.06,44.96,0.00,,
"USC00501201","1908-06-05",55.94,39.92,0.00,,
"USC00501201","1908-06-06",62.06,35.96,0.00,,
"USC00501201","1908-06-07",55.94,35.96,0.00,,
"USC00501201","1908-06-08",57.92,37.04,0.00,,
"USC00501201","1908-06-09",57.92,33.98,0.00,,
"USC00501201","1908-06-10",53.96,35.96,8.00,,
"USC00501201","1908-06-11",53.06,37.94,0.00,,
"USC00501201","1908-06-12",51.08,44.06,102.00,,
"USC00501201","1908-06-13",51.08,44.96,36.00,,
"USC00501201","1908-06-14",51.98,44.06,94.00,,
"USC00501201","1908-06-15",53.06,41.00,112.00,,
"USC00501201","1908-06-16",57.02,42.98,0.00,,
"USC00501201","1908-06-17",59.00,39.92,0.00,,
"USC00501201","1908-06-18",69.98,46.04,0.00,,
"USC00501201","1908-06-19",71.06,42.08,23.00,,
"USC00501201","1908-06-20",69.98,37.94,0.00,,
"USC00501201","1908-06-21",57.92,44.06,0.00,,
"USC00501201","1908-06-22",55.94,44.96,8.00,,
"USC00501201","1908-06-23",73.04,39.92,0.00,,
"USC00501201","1908-06-24",62.96,48.02,23.00,,
"USC00501201","1908-06-25",62.06,46.94,76.00,,
"USC00501201","1908-06-26",62.06,44.96,5.00,,
"USC00501201","1908-06-27",59.00,39.92,0.00,,
"USC00501201","1908-06-28",60.98,44.96,0.00,,
"USC00501201","1908-06-29",57.92,50.00,188.00,,
"USC00501201","1908-06-30",71.06,44.96,8.00,,
"USC00501201","1908-07-01",68.00,50.00,64.00,,
"USC00501201","1908-07-02",60.98,48.02,178.00,,
"USC00501201","1908-07-03",59.00,48.02,43.00,,
"USC00501201","1908-07-04",55.04,46.04,8.00,,
"USC00501201","1908-07-05",55.94,46.94,33.00,,
"USC00501201","1908-07-06",55.04,46.94,23.00,,
"USC00501201","1908-07-07",51.98,46.04,28.00,,
"USC00501201","1908-07-08",59.00,42.98,0.00,,
"USC00501201","1908-07-09",57.92,51.98,180.00,,
"USC00501201","1908-07-10",53.96,44.96,53.00,,
"USC00501201","1908-07-11",57.92,42.08,5.00,,
"USC00501201","1908-07-12",73.04,37.04,0.00,,
"USC00501201","1908-07-13",69.98,37.04,0.00,,
"USC00501201","1908-07-14",68.00,46.04,0.00,,
"USC00501201","1908-07-15",62.06,46.04,0.00,,
"USC00501201","1908-07-16",66.92,44.96,0.00,,
"USC00501201","1908-07-17",68.00,46.94,0.00,,
"USC00501201","1908-07-18",64.04,48.02,216.00,,
"USC00501201","1908-07-19",57.92,44.06,0.00,,
"USC00501201","1908-07-20",60.98,48.92,28.00,,
"USC00501201","1908-07-21",68.00,44.06,0.00,,
"USC00501201","1908-07-22",62.96,51.98,109.00,,
"USC00501201","1908-07-23",59.00,46.94,13.00,,
"USC00501201","1908-07-24",59.00,46.04,36.00,,
"USC00501201","1908-07-25",59.00,37.94,0.00,,
"USC00501201","1908-07-26",55.94,48.02,246.00,,
"USC00501201","1908-07-27",60.08,44.06,0.00,,
"USC00501201","1908-07-28",57.92,48.02,13.00,,
"USC00501201","1908-07-29",62.06,50.00,0.00,,
"USC00501201","1908-07-30",57.92,46.94,0.00,,
"USC00501201","1908-07-31",57.02,53.06,20.00,,
"USC00501201","1908-08-01",55.94,48.92,61.00,,
"USC00501201","1908-08-02",53.96,46.94,3.00,,
"USC00501201","1908-08-03",53.06,50.00,203.00,,
"USC00501201","1908-08-04",57.92,50.00,168.00,,
"USC00501201","1908-08-05",60.98,48.92,0.00,,
"USC00501201","1908-08-06",60.98,48.92,25.00,,
"USC00501201","1908-08-07",60.98,53.96,81.00,,
"USC00501201","1908-08-08",57.02,48.92,38.00,,
"USC00501201","1908-08-09",57.92,44.06,0.00,,
"USC00501201","1908-08-10",60.98,37.04,0.00,,
"USC00501201","1908-08-11",60.98,37.94,0.00,,
"USC00501201","1908-08-12",64.04,37.94,0.00,,
"USC00501201","1908-08-13",57.92,51.08,56.00,,
"USC00501201","1908-08-14",57.92,51.98,140.00,,
"USC00501201","1908-08-15",60.08,48.92,0.00,,
"USC00501201","1908-08-16",57.92,48.92,0.00,,
"USC00501201","1908-08-17",59.00,50.00,15.00,,
"USC00501201","1908-08-18",62.96,50.00,0.00,,
"USC00501201","1908-08-19",64.94,53.06,0.00,,
"USC00501201","1908-08-20",64.94,41.00,0.00,,
"USC00501201","1908-08-21",60.98,44.96,0.00,,
"USC00501201","1908-08-22",59.00,41.00,13.00,,
"USC00501201","1908-08-23",62.96,37.94,0.00,,
"USC00501201","1908-08-24",57.92,41.00,0.00,,
"USC00501201","1908-08-25",55.94,39.92,97.00,,
"USC00501201","1908-08-26",55.04,51.08,455.00,,
"USC00501201","1908-08-27",64.94,51.08,13.00,,
"USC00501201","1908-08-28",59.00,42.08,0.00,,
"USC00501201","1908-08-29",55.94,51.08,0.00,,
"USC00501201","1908-08-30",53.96,50.00,188.00,,
"USC00501201","1908-08-31",59.00,50.00,122.00,,
"USC00501201","1908-09-01",59.00,44.96,0.00,,
"USC00501201","1908-09-02",55.04,50.00,246.00,,
"USC00501201","1908-09-03",57.02,50.00,132.00,,
"USC00501201","1908-09-04",55.04,46.94,20.00,,
"USC00501201","1908-09-05",53.06,48.02,419.00,,
"USC00501201","1908-09-06",55.04,44.96,43.00,,
"USC00501201","1908-09-07",55.04,37.94,0.00,,
"USC00501201","1908-09-08",55.04,35.96,15.00,,
"USC00501201","1908-09-09",53.96,44.96,399.00,,
"USC00501201","1908-09-10",51.98,46.94,351.00,,
"USC00501201","1908-09-11",53.96,46.04,140.00,,
"USC00501201","1908-09-12",55.04,46.04,521.00,,
"USC00501201","1908-09-13",53.06,42.08,76.00,,
"USC00501201","1908-09-14",53.96,42.08,30.00,,
"USC00501201","1908-09-15",55.04,33.08,0.00,,
"USC00501201","1908-09-16",51.08,42.08,58.00,,
"USC00501201","1908-09-17",51.98,46.94,152.00,,
"USC00501201","1908-09-18",51.98,37.04,64.00,,
"USC00501201","1908-09-19",50.00,37.04,8.00,,
"USC00501201","1908-09-20",50.00,37.94,439.00,,
"USC00501201","1908-09-21",51.08,39.92,157.00,,
"USC00501201","1908-09-22",48.02,35.96,38.00,,
"USC00501201","1908-09-23",48.92,28.94,0.00,,
"USC00501201","1908-09-24",48.92,37.04,8.00,,
"USC00501201","1908-09-25",44.96,39.92,36.00,,
"USC00501201","1908-09-26",44.96,42.08,231.00,,
"USC00501201","1908-09-27",53.96,42.08,546.00,,
"USC00501201","1908-09-28",51.98,44.96,127.00,,
"USC00501201","1908-09-29",48.92,42.98,69.00,,
"USC00501201","1908-09-30",51.98,44.96,457.00,,
"USC00501201","1908-10-01",51.98,42.98,152.00,,
"USC00501201","1908-10-02",48.92,39.92,38.00,,
"USC00501201","1908-10-03",51.08,46.04,363.00,,
"USC00501201","1908-10-04",50.00,42.98,20.00,,
"USC00501201","1908-10-05",46.04,37.94,38.00,,
"USC00501201","1908-10-06",50.00,41.00,91.00,,
"USC00501201","1908-10-07",48.02,39.02,89.00,,
"USC00501201","1908-10-08",46.04,37.94,0.00,,
"USC00501201","1908-10-09",51.98,30.92,0.00,,
"USC00501201","1908-10-10",53.96,33.08,0.00,,
"USC00501201","1908-10-11",48.92,41.00,119.00,,
"USC00501201","1908-10-12",50.00,44.96,508.00,,
"USC00501201","1908-10-13",46.04,39.92,318.00,,
"USC00501201","1908-10-14",46.04,37.04,168.00,,
"USC00501201","1908-10-15",42.98,33.98,0.00,,
"USC00501201","1908-10-16",44.96,33.08,0.00,,
"USC00501201","1908-10-17",44.96,35.96,508.00,,
"USC00501201","1908-10-18",44.06,37.04,41.00,,
"USC00501201","1908-10-19",39.02,33.98,135.00,,
"USC00501201","1908-10-20",39.02,26.96,0.00,,
"USC00501201","1908-10-21",37.94,32.00,264.00,58.00,51.00
"USC00501201","1908-10-22",48.92,35.06,244.00,,
"USC00501201","1908-10-23",48.92,42.08,508.00,,
"USC00501201","1908-10-24",46.94,35.96,76.00,,
"USC00501201","1908-10-25",44.96,39.02,239.00,,
"USC00501201","1908-10-26",39.92,28.94,0.00,,
"USC00501201","1908-10-27",37.94,28.04,0.00,,
"USC00501201","1908-10-28",35.06,30.02,0.00,,
"USC00501201","1908-10-29",33.08,26.96,0.00,,
"USC00501201","1908-10-30",30.92,17.06,0.00,,
"USC00501201","1908-10-31",28.04,15.98,0.00,,
"USC00501201","1908-11-01",30.92,23.00,0.00,,
"USC00501201","1908-11-02",44.96,26.06,340.00,,
"USC00501201","1908-11-03",46.94,33.98,284.00,,
"USC00501201","1908-11-04",41.00,28.94,71.00,,
"USC00501201","1908-11-05",44.96,33.98,335.00,,
"USC00501201","1908-11-06",44.96,35.06,152.00,,
"USC00501201","1908-11-07",39.92,30.02,46.00,,
"USC00501201","1908-11-08",41.00,30.02,0.00,,
"USC00501201","1908-11-09",46.04,35.96,0.00,,
"USC00501201","1908-11-10",44.06,30.92,0.00,,
"USC00501201","1908-11-11",48.02,30.92,0.00,,
"USC00501201","1908-11-12",46.04,39.02,114.00,,
"USC00501201","1908-11-13",42.98,37.94,33.00,,
"USC00501201","1908-11-14",42.08,32.00,0.00,,
"USC00501201","1908-11-15",48.92,39.02,69.00,,
"USC00501201","1908-11-16",50.00,42.08,315.00,,
"USC00501201","1908-11-17",46.94,42.08,239.00,,
"USC00501201","1908-11-18",44.96,41.00,56.00,,
"USC00501201","1908-11-19",46.94,41.00,132.00,,
"USC00501201","1908-11-20",46.94,42.08,107.00,,
"USC00501201","1908-11-21",44.06,39.92,107.00,,
"USC00501201","1908-11-22",44.06,39.92,71.00,,
"USC00501201","1908-11-23",42.08,30.92,18.00,,
"USC00501201","1908-11-24",39.02,30.92,0.00,,
"USC00501201","1908-11-25",37.04,28.94,0.00,,
"USC00501201","1908-11-26",42.98,35.96,94.00,,
"USC00501201","1908-11-27",44.06,39.02,292.00,,
"USC00501201","1908-11-28",46.94,30.02,81.00,,
"USC00501201","1908-11-29",41.00,26.06,0.00,,
"USC00501201","1908-11-30",37.04,26.06,0.00,,
"USC00501201","1909-03-01",35.96,30.92,,51.00,
"USC00501201","1909-03-02",35.06,30.02,,25.00,
"USC00501201","1909-03-03",37.94,32.00,,13.00,
"USC00501201","1909-03-04",37.04,30.92,,25.00,
"USC00501201","1909-03-05",37.94,30.92,127.00,0.00,
"USC00501201","1909-03-06",37.94,32.00,152.00,0.00,
"USC00501201","1909-03-07",37.04,30.92,76.00,0.00,
"USC00501201","1909-03-08",39.02,32.00,0.00,0.00,
"USC00501201","1909-03-09",37.04,30.92,279.00,0.00,
"USC00501201","1909-03-10",41.00,35.06,127.00,0.00,
"USC00501201","1909-03-11",39.92,33.98,102.00,0.00,
"USC00501201","1909-03-12",42.08,32.00,0.00,0.00,
"USC00501201","1909-03-13",37.04,32.00,127.00,0.00,
"USC00501201","1909-03-14",39.02,33.08,203.00,0.00,
"USC00501201","1909-03-15",37.04,32.00,406.00,0.00,
"USC00501201","1909-03-16",41.00,30.92,0.00,0.00,
"USC00501201","1909-03-17",35.96,30.02,51.00,0.00,
"USC00501201","1909-03-18",37.04,30.92,203.00,76.00,
"USC00501201","1909-03-19",42.08,32.00,61.00,0.00,
"USC00501201","1909-03-20",46.94,30.92,0.00,0.00,
"USC00501201","1909-03-21",39.92,26.96,51.00,0.00,
"USC00501201","1909-03-22",39.02,30.92,97.00,0.00,
"USC00501201","1909-03-23",46.94,30.92,74.00,0.00,
"USC00501201","1909-03-24",41.00,37.04,102.00,0.00,
"USC00501201","1909-03-25",41.00,28.94,152.00,0.00,
"USC00501201","1909-03-26",41.00,33.08,178.00,0.00,
"USC00501201","1909-03-27",37.94,23.00,0.00,0.00,
"USC00501201","1909-03-28",42.08,28.94,0.00,0.00,
"USC00501201","1909-03-29",44.06,35.06,25.00,0.00,
"USC00501201","1909-03-30",42.98,35.06,61.00,0.00,
"USC00501201","1909-03-31",42.08,32.00,13.00,0.00,
"USC00501201","1909-04-01",46.04,32.00,66.00,,
"USC00501201","1909-04-02",44.06,28.94,15.00,,
"USC00501201","1909-04-03",39.92,33.08,43.00,,
"USC00501201","1909-04-04",44.96,28.94,0.00,,
"USC00501201","1909-04-05",44.06,30.02,0.00,,
"USC00501201","1909-04-06",41.00,26.06,20.00,,
"USC00501201","1909-04-07",41.00,33.08,20.00,,
"USC00501201","1909-04-08",41.00,35.96,234.00,,
"USC00501201","1909-04-09",46.94,28.94,18.00,,
"USC00501201","1909-04-10",46.94,32.00,0.00,,
"USC00501201","1909-04-11",42.98,28.94,0.00,,
"USC00501201","1909-04-12",41.00,35.06,0.00,,
"USC00501201","1909-04-13",39.02,32.00,107.00,,
"USC00501201","1909-04-14",39.02,32.00,0.00,,
"USC00501201","1909-04-15",37.94,32.00,157.00,64.00,0.00
"USC00501201","1909-04-16",42.08,24.08,0.00,,
"USC00501201","1909-04-17",39.92,26.06,0.00,,
"USC00501201","1909-04-18",46.94,32.00,0.00,,
"USC00501201","1909-04-19",55.04,26.96,0.00,,
"USC00501201","1909-04-20",53.96,26.06,0.00,,
"USC00501201","1909-04-21",59.00,26.06,0.00,,
"USC00501201","1909-04-22",51.98,28.04,0.00,,
"USC00501201","1909-04-23",44.06,28.04,10.00,,
"USC00501201","1909-04-24",42.08,33.08,66.00,,
"USC00501201","1909-04-25",42.98,35.06,74.00,,
"USC00501201","1909-04-26",46.04,35.06,13.00,,
"USC00501201","1909-04-27",48.92,30.92,0.00,,
"USC00501201","1909-04-28",48.02,28.94,0.00,,
"USC00501201","1909-04-29",44.06,32.00,56.00,,
"USC00501201","1909-04-30",46.04,35.06,10.00,,
"USC00501201","1909-05-01",51.08,42.08,13.00,,
"USC00501201","1909-05-02",46.94,41.00,64.00,,
"USC00501201","1909-05-03",44.06,35.96,338.00,,
"USC00501201","1909-05-04",46.94,33.08,135.00,,
"USC00501201","1909-05-05",42.98,35.96,145.00,,
"USC00501201","1909-05-06",48.02,32.00,8.00,,
"USC00501201","1909-05-07",51.08,33.08,30.00,,
"USC00501201","1909-05-08",60.98,39.92,0.00,,
"USC00501201","1909-05-09",51.08,37.04,20.00,,
"USC00501201","1909-05-10",44.96,37.04,0.00,,
"USC00501201","1909-05-11",46.04,37.94,97.00,,
"USC00501201","1909-05-12",46.94,39.02,147.00,,
"USC00501201","1909-05-13",48.02,37.94,5.00,,
"USC00501201","1909-05-14",64.04,28.94,0.00,,
"USC00501201","1909-05-15",66.92,30.02,0.00,,
"USC00501201","1909-05-16",69.08,30.92,0.00,,
"USC00501201","1909-05-17",64.04,32.00,0.00,,
"USC00501201","1909-05-18",53.96,35.96,0.00,,
"USC00501201","1909-05-19",55.94,32.00,0.00,,
"USC00501201","1909-05-20",48.92,37.04,0.00,,
"USC00501201","1909-05-21",51.98,35.96,0.00,,
"USC00501201","1909-05-22",53.96,35.96,0.00,,
"USC00501201","1909-05-23",57.92,30.92,0.00,,
"USC00501201","1909-05-24",53.06,37.94,0.00,,
"USC00501201","1909-05-25",71.06,35.06,0.00,,
"USC00501201","1909-05-26",68.00,44.96,0.00,,
"USC00501201","1909-05-27",62.96,39.92,0.00,,
"USC00501201","1909-05-28",55.04,37.04,13.00,,
"USC00501201","1909-05-29",50.00,44.06,102.00,,
"USC00501201","1909-05-30",51.08,39.92,61.00,,
"USC00501201","1909-05-31",53.06,41.00,97.00,,
"USC00501201","1909-06-01",59.00,42.08,117.00,,
"USC00501201","1909-06-02",53.06,44.06,307.00,,
"USC00501201","1909-06-03",51.08,39.02,0.00,,
"USC00501201","1909-06-04",55.04,35.96,0.00,,
"USC00501201","1909-06-05",53.06,33.08,0.00,,
"USC00501201","1909-06-06",53.96,37.94,0.00,,
"USC00501201","1909-06-07",57.02,44.06,0.00,,
"USC00501201","1909-06-08",57.02,39.92,0.00,,
"USC00501201","1909-06-09",55.94,46.94,25.00,,
"USC00501201","1909-06-10",55.04,46.04,25.00,,
"USC00501201","1909-06-11",53.96,44.06,81.00,,
"USC00501201","1909-06-12",55.94,42.98,69.00,,
"USC00501201","1909-06-13",64.94,44.96,0.00,,
"USC00501201","1909-06-14",60.98,51.08,10.00,,
"USC00501201","1909-06-15",55.04,46.94,76.00,,
"USC00501201","1909-06-16",53.96,44.96,53.00,,
"USC00501201","1909-06-17",57.02,44.06,8.00,,
"USC00501201","1909-06-18",53.06,42.98,254.00,,
"USC00501201","1909-06-19",51.98,42.08,107.00,,
"USC00501201","1909-06-20",53.06,39.92,13.00,,
"USC00501201","1909-06-21",59.00,44.06,157.00,,
"USC00501201","1909-06-22",53.96,44.06,84.00,,
"USC00501201","1909-06-23",55.94,41.00,0.00,,
"USC00501201","1909-06-24",57.92,44.06,33.00,,
"USC00501201","1909-06-25",69.08,42.08,0.00,,
"USC00501201","1909-06-26",69.08,48.02,0.00,,
"USC00501201","1909-06-27",64.04,48.02,0.00,,
"USC00501201","1909-06-28",69.98,44.96,0.00,,
"USC00501201","1909-06-29",71.96,48.92,150.00,,
"USC00501201","1909-06-30",64.94,42.98,18.00,,
"USC00501201","1909-07-01",60.08,48.92,5.00,,
"USC00501201","1909-07-02",57.02,48.02,0.00,,
"USC00501201","1909-07-03",62.96,42.98,0.00,,
"USC00501201","1909-07-04",57.92,50.00,0.00,,
"USC00501201","1909-07-05",60.08,39.92,0.00,,
"USC00501201","1909-07-06",59.00,46.94,0.00,,
"USC00501201","1909-07-07",57.92,50.00,41.00,,
"USC00501201","1909-07-08",57.92,53.06,46.00,,
"USC00501201","1909-07-09",60.08,53.06,173.00,,
"USC00501201","1909-07-10",55.94,50.00,180.00,,
"USC00501201","1909-07-11",57.02,50.00,51.00,,
"USC00501201","1909-07-12",57.02,48.02,13.00,,
"USC00501201","1909-07-13",57.92,48.92,46.00,,
"USC00501201","1909-07-14",55.94,48.92,61.00,,
"USC00501201","1909-07-15",62.06,48.92,48.00,,
"USC00501201","1909-07-16",57.92,46.04,71.00,,
"USC00501201","1909-07-17",51.98,50.00,399.00,,
"USC00501201","1909-07-18",57.92,48.02,25.00,,
"USC00501201","1909-07-19",55.94,50.00,56.00,,
"USC00501201","1909-07-20",59.00,48.92,152.00,,
"USC00501201","1909-07-21",57.92,46.94,132.00,,
"USC00501201","1909-07-22",55.94,51.08,183.00,,
"USC00501201","1909-07-23",55.94,48.02,76.00,,
"USC00501201","1909-07-24",62.06,46.94,13.00,,
"USC00501201","1909-07-25",62.06,42.98,0.00,,
"USC00501201","1909-07-26",57.92,48.02,0.00,,
"USC00501201","1909-07-27",57.92,50.00,20.00,,
"USC00501201","1909-07-28",53.96,48.92,147.00,,
"USC00501201","1909-07-29",57.92,51.98,508.00,,
"USC00501201","1909-07-30",57.02,50.00,51.00,,
"USC00501201","1909-07-31",57.92,48.92,135.00,,
"USC00501201","1909-08-01",59.00,44.96,0.00,,
"USC00501201","1909-08-02",55.94,48.92,43.00,,
"USC00501201","1909-08-03",57.02,48.92,41.00,,
"USC00501201","1909-08-04",62.06,44.06,0.00,,
"USC00501201","1909-08-05",57.02,48.02,0.00,,
"USC00501201","1909-08-06",59.00,48.92,0.00,,
"USC00501201","1909-08-07",55.94,48.92,152.00,,
"USC00501201","1909-08-08",62.06,51.08,0.00,,
"USC00501201","1909-08-09",64.94,44.06,0.00,,
"USC00501201","1909-08-10",60.08,46.94,0.00,,
"USC00501201","1909-08-11",55.94,51.98,264.00,,
"USC00501201","1909-08-12",57.92,50.00,109.00,,
"USC00501201","1909-08-13",60.98,,0.00,,
"USC00501201","1909-08-14",59.00,41.00,51.00,,
"USC00501201","1909-08-15",55.04,44.96,152.00,,
"USC00501201","1909-08-16",53.96,48.02,457.00,,
"USC00501201","1909-08-17",53.96,48.02,264.00,,
"USC00501201","1909-08-18",59.00,48.02,56.00,,
"USC00501201","1909-08-19",57.02,48.92,38.00,,
"USC00501201","1909-08-20",53.96,44.96,155.00,,
"USC00501201","1909-08-21",59.00,46.94,20.00,,
"USC00501201","1909-08-22",57.92,41.00,5.00,,
"USC00501201","1909-08-23",50.00,41.00,152.00,,
"USC00501201","1909-08-24",57.92,48.02,165.00,,
"USC00501201","1909-08-25",51.08,46.94,325.00,,
"USC00501201","1909-08-26",55.94,46.94,51.00,,
"USC00501201","1909-08-27",53.96,48.92,89.00,,
"USC00501201","1909-08-28",57.02,48.92,140.00,,
"USC00501201","1909-08-29",53.96,44.06,41.00,,
"USC00501201","1909-08-30",53.06,48.92,302.00,,
"USC00501201","1909-08-31",57.02,48.02,147.00,,
"USC00501201","1909-09-01",55.04,48.92,216.00,,
"USC00501201","1909-09-02",60.98,41.00,0.00,,
"USC00501201","1909-09-03",68.00,37.04,0.00,,
"USC00501201","1909-09-04",69.98,42.08,0.00,,
"USC00501201","1909-09-05",64.94,42.08,13.00,,
"USC00501201","1909-09-06",53.96,44.96,81.00,,
"USC00501201","1909-09-07",57.92,50.00,287.00,,
"USC00501201","1909-09-08",57.02,51.98,338.00,,
"USC00501201","1909-09-09",57.92,50.00,142.00,,
"USC00501201","1909-09-10",53.96,39.92,0.00,,
"USC00501201","1909-09-11",53.96,39.92,13.00,,
"USC00501201","1909-09-12",55.04,44.06,20.00,,
"USC00501201","1909-09-13",57.02,42.08,3.00,,
"USC00501201","1909-09-14",57.92,42.98,254.00,,
"USC00501201","1909-09-15",59.00,51.98,406.00,,
"USC00501201","1909-09-16",55.04,48.02,432.00,,
"USC00501201","1909-09-17",51.98,46.94,8.00,,
"USC00501201","1909-09-18",59.00,46.94,23.00,,
"USC00501201","1909-09-19",59.00,42.08,8.00,,
"USC00501201","1909-09-20",51.08,44.96,5.00,,
"USC00501201","1909-09-21",48.02,46.94,3.00,,
"USC00501201","1909-09-22",51.98,44.06,511.00,,
"USC00501201","1909-09-23",55.94,51.08,508.00,,
"USC00501201","1909-09-24",53.96,44.96,511.00,,
"USC00501201","1909-09-25",50.00,39.02,5.00,,
"USC00501201","1909-09-26",48.92,42.98,259.00,,
"USC00501201","1909-09-27",50.00,44.96,257.00,,
"USC00501201","1909-09-28",57.92,46.94,254.00,,
"USC00501201","1909-09-29",48.92,44.06,3.00,,
"USC00501201","1909-09-30",53.06,44.96,10.00,,
"USC00501201","1909-10-01",50.00,35.96,203.00,,
"USC00501201","1909-10-02",41.00,37.04,254.00,,
"USC00501201","1909-10-03",51.08,41.00,264.00,,
"USC00501201","1909-10-04",46.94,37.94,3.00,,
"USC00501201","1909-10-05",51.08,42.08,356.00,,
"USC00501201","1909-10-06",48.92,39.92,18.00,,
"USC00501201","1909-10-07",57.92,37.94,0.00,,
"USC00501201","1909-10-08",44.96,28.04,0.00,,
"USC00501201","1909-10-09",55.04,37.04,5.00,,
"USC00501201","1909-10-10",48.92,39.92,203.00,,
"USC00501201","1909-10-11",59.00,48.02,5.00,,
"USC00501201","1909-10-12",48.92,44.06,257.00,,
"USC00501201","1909-10-13",46.94,42.08,,,
"USC00501201","1909-10-14",48.02,42.08,330.00,,
"USC00501201","1909-10-15",44.96,41.00,5.00,,
"USC00501201","1909-10-16",44.06,30.92,0.00,,
"USC00501201","1909-10-17",44.06,30.02,0.00,,
"USC00501201","1909-10-18",46.04,35.96,0.00,,
"USC00501201","1909-10-19",44.06,35.96,3.00,,
"USC00501201","1909-10-20",39.92,35.96,8.00,,
"USC00501201","1909-10-21",46.04,37.04,203.00,,
"USC00501201","1909-10-22",48.92,46.04,320.00,,
"USC00501201","1909-10-23",50.00,41.00,104.00,,
"USC00501201","1909-10-24",46.04,41.00,203.00,,
"USC00501201","1909-10-25",44.96,35.96,10.00,,
"USC00501201","1909-10-26",42.98,39.92,107.00,,
"USC00501201","1909-10-27",44.06,37.94,445.00,,
"USC00501201","1909-10-28",41.00,35.96,114.00,,
"USC00501201","1909-10-29",42.08,35.96,196.00,,
"USC00501201","1909-10-30",41.00,35.96,241.00,,
"USC00501201","1909-10-31",42.98,37.94,107.00,,
"USC00501201","1909-11-01",44.06,39.02,140.00,0.00,
"USC00501201","1909-11-02",44.06,39.92,119.00,0.00,
"USC00501201","1909-11-03",42.98,35.96,216.00,0.00,
"USC00501201","1909-11-04",42.08,33.08,145.00,0.00,